Location: Arbon
(43.0005°N, 0.7472°E)
Time: 13:44:56
(UTC+00:00)

Vanguard 1 - Pass Details

Date: 26 November 2020
Orbit: 648 x 3834 km, 34.3° (Epoch: 23 January)

Event Time Altitude Azimuth Distance (km) Brightness Sun altitude
Rises 12:12:43 0° 275° (W) 5,884 14.1 25.6°
Reaches altitude 10° 12:16:58 10° 264° (W) 5,314 14.1 25.5°
Maximum altitude 12:29:49 27° 215° (SW) 5,009 15.3 25.1°
Drops below altitude 10° 12:46:38 10° 168° (SSE) 6,921 15.6 24.3°
Sets 12:53:34 0° 157° (SSE) 7,931 15.4 24.0°
